This is the latest recevied weather packets stored in our database for station/object DO2HN-12. If no packets are shown the sender has not sent any weather packets the latest 1 day(s).
| Time | Temp. | Humidity | Pressure | Rain* | Wind** | Luminosity | Snow |
|---|---|---|---|---|---|---|---|
| 1778052928 | 16.67° C | 68% | 1007.9 hPa | - | - | - | - |
| 1778052027 | 16.11° C | 69% | 1007.9 hPa | - | - | - | - |
| 1778051126 | 16.67° C | 69% | 1008 hPa | - | - | - | - |
| 1778048424 | 15.56° C | 72% | 1008.1 hPa | - | - | - | - |
| 1778047523 | 15.56° C | 71% | 1008.1 hPa | - | - | - | - |
| 1778045721 | 15° C | 74% | 1007.9 hPa | - | - | - | - |
| 1778043920 | 15° C | 76% | 1007.8 hPa | - | - | - | - |
| 1778043019 | 15° C | 75% | 1007.7 hPa | - | - | - | - |
| 1778042118 | 14.44° C | 76% | 1007.5 hPa | - | - | - | - |
| 1778041217 | 14.44° C | 76% | 1007.7 hPa | - | - | - | - |
| 1778040316 | 13.89° C | 79% | 1007.4 hPa | - | - | - | - |
| 1778037614 | 14.44° C | 78% | 1007.6 hPa | - | - | - | - |
| 1778036713 | 14.44° C | 77% | 1007.6 hPa | - | - | - | - |
| 1778035812 | 13.89° C | 79% | 1007.6 hPa | - | - | - | - |
| 1778034911 | 13.89° C | 78% | 1007.5 hPa | - | - | - | - |
| 1778033110 | 15° C | 76% | 1007.6 hPa | - | - | - | - |
| 1778032209 | 15° C | 76% | 1007.5 hPa | - | - | - | - |
| 1778031308 | 15° C | 77% | 1007.4 hPa | - | - | - | - |
| 1778030407 | 15° C | 76% | 1007.6 hPa | - | - | - | - |
| 1778029506 | 15° C | 78% | 1007.8 hPa | - | - | - | - |
| 1778025002 | 14.44° C | 76% | 1008.4 hPa | - | - | - | - |
| 1778020498 | 16.11° C | 77% | 1009 hPa | - | - | - | - |
* Rain since midnight (hover to see other rain measurements)
** Current wind speed in m/s (hover to see current wind gust speed)